Temperature
9 8 8 9 10 11 12 12 13 14 16 16 15 16 17 18 18 19 20 20 21 21 21 20 20 19 19 18 17 16 15 15 14 13 13 13 12 12 12 12 12 12 12 11
8 8 10 11 11 11 11 11 12 13 15 16 15 15 17 18 18 19 19 20 21 21 21 21 20 20 19 18 17 16 15 15 14 14 14 14 13 13 12 12 12 12 12 11
7 9 10 11 11 10 11 11 11 12 14 14 14 14 15 17 18 19 19 20 21 21 21 21 20 20 19 18 17 16 16 15 15 14 13 12 12 12 12 12 12 12 12 12
8 9 10 10 10 10 10 12 12 12 11 11 12 11 14 16 17 18 18 19 20 21 21 21 20 20 19 18 18 17 16 15 15 14 13 13 13 13 13 13 13 12 12 12
7 9 9 8 9 10 10 11 11 11 11 10 11 11 12 15 16 17 18 19 20 20 20 21 20 20 19 19 18 17 16 15 15 14 14 13 14 14 14 13 13 12 12 12
7 9 9 9 10 10 10 10 10 10 9 8 10 10 11 14 16 17 18 19 20 20 20 20 20 20 19 19 18 17 16 15 15 14 14 13 14 14 13 13 13 12 12 12
6 8 9 9 8 9 9 8 7 7 7 8 11 11 12 15 17 17 18 19 20 20 20 20 20 20 19 18 18 17 16 15 15 14 14 14 14 14 13 14 13 13 12 12
5 6 8 9 8 7 8 8 7 7 8 9 12 11 13 15 17 18 18 19 19 19 19 19 19 19 19 18 18 17 17 16 15 14 14 14 13 13 13 13 13 13 14 14
4 6 8 8 9 8 7 8 8 8 8 9 10 12 14 15 16 17 17 18 18 19 19 19 19 19 19 19 18 17 17 16 15 15 14 13 13 13 13 13 13 13 13 13
5 4 6 8 8 8 8 8 7 7 7 8 10 11 13 14 15 16 16 16 17 18 18 18 18 18 19 18 18 17 17 16 16 15 14 14 13 13 13 13 12 12 12 12
4 3 5 6 6 7 7 7 7 7 7 8 9 11 14 14 15 15 15 16 17 17 17 17 17 18 18 18 17 17 17 16 15 15 14 13 13 13 12 12 12 12 12 12
4 3 3 5 7 7 7 7 6 6 6 8 9 11 15 15 15 15 15 16 17 17 17 16 16 16 17 17 17 17 16 16 15 15 14 14 13 13 12 12 12 12 12 12
4 3 2 4 5 5 5 6 6 6 6 7 8 10 13 14 14 14 15 15 16 16 16 16 15 15 16 16 17 16 16 16 15 15 14 14 13 13 12 12 12 12 11 11
4 2 2 3 4 4 4 5 5 5 5 6 8 10 11 12 13 13 14 14 15 15 15 15 14 14 15 15 16 16 16 15 15 14 14 14 13 13 13 12 12 12 11 11
3 2 3 4 5 5 5 5 5 5 5 6 8 9 10 11 12 12 13 13 14 13 13 13 13 14 14 14 14 15 15 15 15 14 14 14 14 13 13 12 12 11 11 11
2 1 2 3 4 5 5 6 6 6 6 7 8 9 11 11 12 12 12 13 12 12 12 12 12 13 13 13 14 14 14 14 14 14 14 14 13 13 12 12 12 11 11 11
1 1 1 2 4 4 4 6 6 7 7 8 8 9 10 10 11 11 11 12 12 11 11 11 12 12 13 13 13 14 14 14 14 14 14 14 13 13 12 12 11 11 11 10
1 1 1 1 2 2 4 7 7 7 8 8 8 9 9 10 11 11 11 11 11 11 11 11 11 12 12 13 13 13 14 14 14 14 13 13 13 12 12 11 11 11 10 10
3 1 1 1 1 3 5 7 7 7 7 7 8 8 9 9 10 11 10 10 10 10 11 11 11 12 12 12 12 13 13 13 13 13 13 13 13 12 12 11 11 10 10 10
3 2 1 1 1 3 5 7 7 7 6 7 7 8 8 8 8 9 10 10 10 10 10 11 11 11 11 12 12 12 13 13 13 13 13 13 12 12 11 11 10 10 10 9
1 1 1 1 1 3 5 6 7 5 5 6 7 7 7 7 8 8 9 9 9 10 10 10 11 11 11 11 12 12 12 13 13 13 12 12 12 11 11 10 10 9 9 9
1 1 0 1 1 2 5 5 5 4 6 6 6 7 7 7 8 8 8 9 9 9 10 10 10 10 11 11 11 11 12 12 12 12 12 11 11 11 10 10 9 9 9 9
2 2 1 2 2 4 5 5 5 6 5 6 6 6 6 6 7 7 7 8 8 9 9 10 10 10 10 10 11 11 11 12 12 12 11 11 10 10 10 9 9 9 8 8
3 3 2 2 3 4 5 5 5 5 5 5 5 5 5 5 6 6 7 7 8 8 9 9 9 9 10 10 10 11 11 12 11 11 11 10 10 10 9 9 9 9 8 8
2 2 2 2 3 4 5 5 5 4 4 4 4 5 5 5 5 5 6 6 7 7 8 9 9 9 9 10 10 10 11 11 11 11 10 10 10 9 9 8 8 8 8 8
2 2 2 2 3 3 3 4 4 4 4 4 4 4 4 4 4 5 5 6 6 7 8 8 9 9 9 9 10 10 11 11 11 10 10 9 9 9 8 8 8 7 8 7
Wind_Speed
9 11 16 20 22 21 18 19 20 20 16 17 20 22 19 16 15 15 15 15 15 16 15 16 16 16 16 17 19 20 19 18 15 13 13 12 10 9 8 8 12 15 15 15
11 19 22 19 19 21 23 23 22 18 16 16 17 20 18 17 18 16 15 15 15 14 15 16 16 16 17 18 19 20 21 20 18 15 13 11 10 8 7 7 9 14 15 15
18 14 14 18 20 21 23 22 21 18 15 14 14 18 18 16 17 18 16 15 14 15 15 16 17 17 16 18 19 20 21 21 19 15 11 10 8 7 7 9 9 11 14 15
14 17 16 18 20 21 22 20 20 19 15 11 12 13 16 16 18 19 18 17 16 15 14 14 16 18 18 18 18 19 20 20 20 18 16 17 15 13 12 11 9 10 12 13
11 11 14 19 20 19 18 15 17 17 15 14 14 12 12 15 19 21 20 19 17 15 15 14 15 17 17 17 18 18 19 19 19 20 18 18 14 12 9 9 11 12 11 12
18 15 13 15 16 16 14 12 13 12 11 17 20 16 12 14 19 18 19 19 19 18 16 15 14 14 15 16 16 17 18 19 20 21 20 19 18 15 13 13 13 12 10 10
12 15 14 12 13 13 12 8 6 8 10 12 15 14 12 12 15 17 17 18 18 18 17 16 14 15 16 17 18 18 19 19 19 21 21 21 19 18 17 15 14 13 11 11
7 9 8 8 11 9 12 14 11 7 8 9 12 14 11 13 13 12 12 12 14 15 16 16 15 15 16 18 19 20 20 19 20 21 21 20 18 15 13 14 12 14 12 12
5 7 6 8 8 10 11 12 12 10 10 8 7 9 12 10 12 13 12 11 12 13 13 13 14 14 16 19 20 20 21 19 19 20 20 19 19 16 14 13 12 12 10 11
4 8 9 9 7 10 10 8 5 8 7 10 9 12 9 10 11 11 11 11 12 11 11 11 11 13 13 16 17 18 19 19 17 18 18 16 17 17 14 12 13 13 13 12
4 5 7 6 7 8 6 9 8 6 6 5 7 8 9 8 8 9 9 9 9 9 9 9 9 10 11 12 15 16 17 16 16 17 16 16 16 15 14 13 13 12 12 13
4 4 6 9 8 7 7 7 7 7 7 6 6 7 5 5 6 5 7 7 6 6 7 7 8 7 10 11 12 14 15 16 16 16 15 16 15 15 15 14 13 12 13 13
3 3 4 4 4 4 4 5 6 7 5 7 8 8 6 6 4 3 3 3 4 5 5 5 6 7 8 10 11 12 13 14 13 14 15 15 15 15 15 14 13 13 12 12
5 4 6 7 6 5 7 9 8 7 7 8 11 13 10 9 7 4 2 1 1 5 6 6 5 6 7 8 10 11 12 12 13 13 14 15 16 16 15 14 13 13 12 12
2 6 10 14 15 14 13 14 13 13 11 10 13 15 12 10 9 4 1 2 1 2 5 5 5 5 6 6 7 9 10 11 12 12 13 13 13 13 13 13 13 12 12 12
3 5 8 13 14 14 17 17 16 16 16 16 17 16 10 8 8 4 1 0 0 1 3 4 5 6 6 7 7 7 9 11 12 12 12 11 12 12 12 13 13 12 12 12
4 5 5 10 12 12 13 14 16 15 14 14 15 12 6 7 6 4 1 1 1 1 1 3 5 6 7 7 7 8 8 9 11 12 11 12 13 13 13 13 13 13 13 12
8 7 5 6 7 10 7 6 10 12 12 11 11 10 7 8 8 3 1 0 2 2 2 3 4 5 5 5 6 7 8 9 11 11 12 12 13 13 13 13 13 12 11 12
12 10 6 4 7 10 9 8 9 10 9 6 9 9 7 8 7 4 2 2 3 3 3 3 4 5 6 7 8 7 9 9 10 12 12 12 13 13 14 14 14 12 11 11
11 10 7 6 7 7 5 6 7 7 8 4 6 7 6 5 4 5 6 5 4 3 2 1 1 4 6 7 8 9 10 10 11 12 12 12 12 13 14 13 12 10 11 10
7 8 11 11 9 7 7 7 4 3 4 5 5 5 5 5 6 6 7 6 5 3 2 1 1 4 6 7 9 9 9 10 10 10 11 11 12 12 12 12 11 12 11 11
6 5 7 8 10 9 5 4 2 5 6 6 6 6 7 8 8 7 7 7 6 4 2 1 2 3 5 8 9 9 9 8 10 11 11 12 12 11 11 13 12 12 13 12
7 7 5 7 8 7 6 5 6 7 8 8 7 9 9 10 9 9 8 7 6 5 3 2 2 3 4 7 9 10 9 10 12 13 12 12 12 11 12 13 14 13 12 11
6 6 7 8 9 10 9 9 9 9 10 10 11 11 10 10 10 10 8 7 6 6 4 3 3 4 5 5 7 8 10 11 13 14 13 12 13 12 11 10 11 11 11 11
8 6 9 12 12 12 11 10 10 11 11 12 13 12 10 10 11 10 9 7 7 6 5 4 5 5 6 6 7 8 11 12 13 13 13 12 12 12 11 9 7 9 8 11
9 10 11 12 10 10 11 10 10 13 14 13 13 14 12 10 11 11 10 8 7 7 5 5 5 6 6 6 8 9 11 13 14 13 13 11 11 11 10 11 9 10 10 13
Wind_Direction
220 221 225 222 223 235 244 246 247 248 242 235 239 242 240 232 234 233 226 221 216 213 203 195 191 185 180 177 175 175 175 176 174 178 178 179 181 177 176 173 174 175 176 174
240 234 237 238 240 241 245 248 252 258 254 245 246 249 244 231 230 232 230 224 218 213 204 195 188 184 182 179 177 176 178 179 180 184 182 179 175 176 176 172 176 179 179 177
243 247 246 243 241 242 243 244 247 252 262 264 261 257 248 243 233 230 230 228 223 216 210 198 190 186 182 181 180 181 180 181 183 179 173 168 166 170 179 185 186 184 182 180
252 250 250 250 245 239 246 247 250 251 252 252 239 254 242 236 235 230 226 224 225 219 214 203 193 187 184 182 180 180 180 182 183 179 180 178 182 187 190 186 186 184 184 182
251 255 251 249 249 247 250 254 255 253 250 255 244 249 247 227 232 228 224 219 220 218 215 209 197 188 184 180 179 181 180 182 181 183 185 185 189 191 180 177 181 187 189 186
259 261 250 248 251 252 255 256 262 257 248 245 236 234 249 224 228 225 222 217 215 214 213 211 199 186 182 178 178 179 181 183 182 185 187 189 191 187 182 184 187 189 190 191
263 256 243 239 250 248 239 223 225 220 223 237 226 229 240 229 229 227 221 216 212 209 209 207 198 188 182 179 179 181 182 185 185 187 190 193 194 191 190 188 188 187 188 193
258 263 242 233 234 230 228 216 219 220 221 236 221 227 233 225 231 232 227 216 208 207 205 202 197 190 183 180 181 183 186 188 187 189 193 193 193 195 197 190 188 190 192 193
259 263 273 267 253 230 222 224 232 250 260 260 235 240 242 227 229 227 225 218 211 205 202 198 193 192 185 182 183 184 187 189 190 191 191 193 194 194 195 190 187 189 188 186
268 280 276 270 265 240 226 221 229 226 234 240 238 236 232 209 220 220 217 213 215 205 200 196 193 189 185 181 182 183 186 189 189 189 191 193 193 194 192 188 187 185 184 179
266 268 275 261 235 236 226 219 225 230 240 242 241 240 220 205 207 208 217 219 210 202 195 192 189 185 178 173 176 181 185 186 187 189 189 189 190 189 188 189 188 184 180 177
251 255 265 260 253 245 242 223 216 225 238 241 253 255 248 229 234 223 221 220 209 194 191 182 178 175 177 174 175 179 182 184 186 186 186 187 184 183 186 188 186 180 179 178
264 256 282 274 220 221 243 236 233 250 249 245 240 253 295 315 281 262 248 220 206 184 174 165 163 170 174 176 176 177 180 182 181 180 181 182 182 183 186 186 183 180 179 176
281 246 246 260 278 281 265 262 247 241 235 249 250 263 286 304 300 299 300 259 189 171 161 161 166 171 176 177 176 174 175 176 176 176 178 181 183 184 183 180 178 178 176 173
272 261 263 272 278 272 264 258 252 242 240 245 258 265 273 281 283 284 314 359 74 130 152 160 170 170 167 169 169 170 170 171 172 173 176 179 176 174 172 171 171 170 170 170
247 267 283 278 276 274 269 258 249 248 246 248 261 267 272 272 280 291 287 196 236 179 162 168 175 170 168 171 170 166 171 169 168 171 173 167 164 165 166 166 165 164 165 165
234 245 266 272 280 282 261 247 243 241 240 240 250 261 284 285 297 283 258 186 242 224 174 191 188 183 179 179 173 173 172 165 165 166 164 163 161 162 163 161 161 163 164 160
232 240 249 268 275 250 248 252 251 251 251 248 261 273 279 287 277 270 280 269 273 262 239 225 200 182 175 170 168 166 163 163 162 161 162 161 160 160 158 159 162 160 159 161
223 221 235 249 256 268 268 261 252 246 251 263 269 279 295 301 283 266 303 297 267 262 253 222 208 181 168 165 163 159 161 161 160 162 163 162 160 159 159 161 161 157 155 155
212 210 227 240 249 254 276 293 278 249 249 291 293 285 295 309 276 276 309 308 298 294 296 270 214 172 166 167 161 161 165 165 168 165 162 159 159 159 160 159 155 150 149 148
207 211 223 238 249 262 287 306 317 231 279 327 294 291 303 280 270 287 304 307 298 285 277 239 200 180 177 167 163 168 170 174 165 153 152 154 156 156 153 149 146 144 142 141
215 215 221 230 239 250 297 323 284 286 310 322 321 312 300 295 301 305 310 309 305 298 280 232 214 195 175 169 169 173 175 161 149 147 150 151 150 148 147 145 144 144 144 143
221 216 221 224 241 271 290 289 292 305 311 313 314 315 315 307 303 301 302 301 299 287 261 232 212 200 181 181 176 175 167 150 147 147 149 148 145 144 147 148 147 147 148 149
245 236 246 256 260 273 283 292 299 304 304 307 308 307 305 302 301 298 295 295 298 294 265 234 203 203 196 189 179 168 155 150 149 150 149 147 145 143 142 144 148 151 155 154
260 261 258 262 270 279 275 281 292 300 303 305 305 301 296 294 292 290 287 281 278 285 268 231 208 211 202 185 171 159 154 151 150 149 149 147 145 143 139 135 139 147 156 161
248 249 253 260 267 273 281 285 293 295 295 296 297 297 296 289 286 286 281 271 264 263 255 234 217 211 198 180 170 163 158 156 153 152 152 150 146 142 137 130 109 91 117 129
Height
1424 1426 1421 1417 1417 1416 1415 1414 1411 1406 1404 1407 1406 1404 1404 1405 1406 1406 1408 1410 1413 1417 1421 1426 1431 1436 1441 1446 1450 1455 1459 1465 1470 1475 1479 1484 1488 1493 1497 1501 1504 1508 1511 1514
1422 1417 1412 1412 1413 1413 1413 1413 1409 1404 1402 1401 1401 1399 1397 1397 1398 1400 1401 1403 1406 1410 1414 1418 1423 1429 1433 1438 1443 1448 1453 1458 1463 1467 1472 1477 1483 1488 1493 1497 1500 1504 1507 1510
1414 1407 1407 1408 1409 1410 1408 1408 1407 1406 1402 1399 1401 1399 1394 1390 1390 1392 1394 1396 1399 1402 1406 1411 1415 1420 1426 1431 1436 1441 1446 1451 1456 1462 1468 1474 1480 1485 1489 1492 1495 1499 1502 1506
1407 1404 1405 1405 1403 1405 1404 1401 1402 1403 1406 1405 1403 1403 1390 1385 1384 1384 1385 1388 1391 1395 1399 1403 1407 1412 1417 1423 1429 1435 1440 1445 1450 1456 1461 1465 1469 1473 1477 1483 1488 1493 1497 1501
1403 1400 1401 1401 1399 1399 1398 1399 1400 1400 1403 1405 1400 1401 1386 1379 1377 1375 1376 1379 1383 1387 1391 1395 1399 1404 1410 1416 1422 1428 1434 1439 1444 1449 1454 1459 1463 1468 1473 1479 1483 1488 1492 1496
1400 1398 1397 1395 1395 1396 1396 1398 1399 1399 1402 1404 1394 1396 1383 1372 1366 1365 1366 1369 1373 1378 1383 1388 1393 1398 1403 1409 1415 1421 1427 1432 1437 1442 1447 1452 1456 1462 1467 1472 1476 1481 1485 1490
1396 1392 1390 1391 1392 1393 1394 1402 1407 1405 1402 1392 1381 1383 1372 1358 1355 1355 1357 1360 1364 1369 1375 1380 1385 1390 1395 1401 1407 1413 1419 1425 1430 1435 1440 1445 1450 1455 1460 1464 1469 1474 1478 1482
1399 1392 1384 1384 1387 1389 1390 1394 1399 1396 1390 1380 1371 1369 1357 1349 1348 1348 1350 1352 1356 1361 1366 1371 1376 1382 1387 1392 1398 1405 1411 1417 1423 1428 1433 1438 1444 1450 1455 1459 1463 1467 1471 1475
1399 1390 1381 1380 1380 1383 1386 1387 1386 1388 1382 1380 1367 1355 1346 1342 1342 1342 1344 1346 1350 1353 1358 1363 1368 1374 1379 1384 1390 1396 1402 1409 1415 1421 1426 1432 1437 1443 1448 1453 1458 1462 1466 1470
1397 1396 1384 1380 1378 1378 1379 1381 1387 1388 1383 1378 1365 1354 1346 1340 1339 1337 1339 1341 1344 1348 1352 1356 1361 1366 1372 1377 1383 1389 1395 1401 1407 1414 1419 1425 1430 1436 1441 1447 1452 1456 1460 1464
1397 1398 1387 1380 1377 1376 1378 1381 1381 1381 1378 1373 1365 1351 1332 1332 1332 1333 1335 1336 1339 1342 1346 1350 1355 1360 1366 1371 1377 1382 1388 1395 1401 1407 1413 1419 1424 1430 1435 1440 1445 1450 1455 1459
1394 1395 1390 1380 1374 1374 1374 1375 1379 1382 1377 1369 1363 1348 1325 1325 1326 1328 1330 1332 1335 1338 1342 1346 1351 1355 1360 1365 1371 1376 1382 1388 1394 1400 1406 1412 1418 1423 1429 1434 1439 1444 1449 1453
1394 1395 1393 1381 1377 1376 1377 1376 1378 1378 1375 1367 1362 1347 1327 1327 1326 1327 1328 1330 1332 1335 1339 1343 1347 1351 1355 1360 1365 1370 1376 1382 1388 1394 1400 1406 1411 1417 1422 1427 1433 1438 1443 1447
1391 1393 1393 1388 1379 1378 1378 1376 1375 1378 1375 1368 1357 1344 1336 1333 1330 1329 1329 1329 1331 1333 1336 1340 1344 1348 1352 1356 1360 1365 1370 1376 1382 1388 1394 1399 1405 1410 1416 1421 1427 1432 1437 1442
1391 1391 1385 1380 1375 1372 1371 1369 1369 1371 1368 1367 1352 1344 1339 1336 1333 1330 1329 1330 1331 1333 1335 1338 1341 1344 1348 1352 1356 1361 1366 1371 1377 1382 1388 1393 1399 1405 1410 1416 1421 1427 1432 1436
1389 1389 1384 1378 1371 1368 1364 1360 1360 1359 1358 1356 1349 1342 1336 1335 1333 1330 1330 1331 1332 1333 1335 1337 1340 1342 1345 1349 1352 1357 1361 1367 1372 1377 1383 1388 1394 1400 1405 1410 1416 1421 1427 1432
1388 1388 1386 1379 1369 1366 1361 1351 1349 1349 1347 1346 1344 1339 1337 1335 1333 1331 1331 1331 1333 1333 1334 1336 1338 1340 1342 1345 1349 1353 1357 1362 1367 1372 1378 1383 1389 1394 1400 1406 1411 1416 1421 1426
1384 1385 1385 1379 1374 1372 1352 1343 1341 1341 1340 1340 1339 1337 1336 1334 1331 1330 1331 1331 1331 1332 1333 1334 1336 1338 1340 1343 1347 1350 1354 1359 1363 1368 1373 1378 1384 1389 1395 1401 1406 1411 1417 1422
1374 1379 1381 1378 1372 1359 1345 1340 1339 1338 1336 1337 1336 1334 1333 1331 1328 1328 1329 1331 1332 1331 1332 1332 1334 1335 1337 1340 1344 1347 1351 1355 1359 1363 1368 1373 1379 1385 1391 1396 1402 1407 1413 1418
1366 1372 1378 1375 1369 1357 1343 1336 1332 1334 1336 1335 1333 1332 1332 1331 1332 1329 1328 1329 1329 1329 1330 1330 1331 1333 1335 1338 1341 1344 1347 1351 1355 1360 1365 1370 1375 1381 1387 1392 1398 1404 1409 1414
1366 1369 1371 1370 1364 1351 1341 1336 1332 1341 1341 1334 1332 1332 1332 1331 1331 1329 1327 1327 1327 1327 1327 1328 1329 1330 1333 1335 1338 1341 1344 1348 1353 1357 1362 1368 1373 1378 1384 1390 1395 1401 1406 1411
1362 1365 1365 1363 1361 1353 1338 1336 1339 1339 1335 1333 1332 1331 1330 1328 1327 1325 1325 1324 1323 1323 1324 1325 1326 1328 1330 1333 1335 1338 1342 1346 1350 1355 1360 1365 1371 1376 1382 1387 1393 1398 1403 1408
1353 1355 1354 1353 1349 1339 1336 1337 1336 1335 1333 1331 1330 1329 1328 1326 1324 1323 1322 1321 1320 1320 1321 1322 1323 1325 1327 1330 1332 1335 1339 1343 1347 1352 1358 1363 1368 1374 1379 1384 1389 1395 1400 1405
1346 1345 1346 1344 1338 1335 1334 1333 1333 1332 1331 1329 1327 1326 1325 1323 1321 1320 1319 1317 1316 1317 1318 1319 1320 1321 1324 1327 1330 1333 1336 1340 1344 1349 1354 1360 1365 1371 1377 1382 1387 1392 1396 1401
1344 1343 1342 1339 1334 1332 1330 1330 1330 1328 1327 1325 1324 1322 1321 1319 1317 1316 1315 1314 1313 1313 1314 1315 1316 1318 1320 1323 1326 1329 1333 1337 1341 1346 1352 1357 1363 1368 1374 1379 1385 1390 1395 1399
1338 1338 1338 1333 1331 1330 1326 1326 1326 1324 1322 1321 1319 1317 1315 1314 1312 1311 1310 1309 1309 1309 1310 1310 1312 1314 1316 1319 1322 1325 1329 1334 1338 1343 1349 1354 1359 1365 1371 1376 1382 1388 1394 1398